Hourly Weather Ruli

Today, 22 April, Thursday

Time Temperature Precipitation Wind Pressure Humidity
00:00 +5°C° 0 mm 3 mps 744 mmHg 89%
01:00 +5°C° 0 mm 3 mps 744 mmHg 90%
02:00 +5°C° 0 mm 3 mps 744 mmHg 91%
03:00 +5°C° 0 mm 3 mps 745 mmHg 93%
04:00 +5°C° 0 mm 3 mps 745 mmHg 92%
05:00 +5°C° 0 mm 3 mps 745 mmHg 91%
06:00 +6°C° 0 mm 2 mps 746 mmHg 90%
07:00 +8°C° 0 mm 3 mps 746 mmHg 82%
08:00 +9°C° 0 mm 3 mps 746 mmHg 74%
09:00 +11°C° 0 mm 3 mps 746 mmHg 66%
10:00 +12°C° 0.1 mm 4 mps 747 mmHg 61%
11:00 +13°C° 0.1 mm 4 mps 747 mmHg 56%
12:00 +14°C° 0.1 mm 5 mps 747 mmHg 52%
13:00 +14°C° 0.1 mm 5 mps 747 mmHg 52%
14:00 +14°C° 0.1 mm 4 mps 747 mmHg 52%
15:00 +14°C° 0.1 mm 4 mps 747 mmHg 52%
16:00 +14°C° 0.1 mm 3 mps 747 mmHg 57%
17:00 +14°C° 0.1 mm 2 mps 747 mmHg 61%
18:00 +13°C° 0.1 mm 1 mps 747 mmHg 65%
19:00 +13°C° 0 mm 1 mps 747 mmHg 66%
20:00 +12°C° 0 mm 1 mps 747 mmHg 67%
21:00 +11°C° 0 mm 0 mps 748 mmHg 68%
22:00 +10°C° 0 mm 0 mps 747 mmHg 70%
23:00 +10°C° 0 mm 0 mps 747 mmHg 71%

Tomorrow, 23 April, Friday

Time Temperature Precipitation Wind Pressure Humidity
00:00 +9°C° 0 mm 0 mps 747 mmHg 72%
01:00 +10°C° 0 mm 1 mps 747 mmHg 72%
02:00 +10°C° 0 mm 1 mps 747 mmHg 72%
03:00 +9°C° 0 mm 2 mps 747 mmHg 72%
04:00 +9°C° 0 mm 2 mps 747 mmHg 73%
05:00 +9°C° 0 mm 2 mps 747 mmHg 74%
06:00 +9°C° 0 mm 2 mps 747 mmHg 74%
07:00 +11°C° 0 mm 3 mps 747 mmHg 70%
08:00 +12°C° 0 mm 3 mps 747 mmHg 65%
09:00 +13°C° 0 mm 3 mps 747 mmHg 61%
10:00 +14°C° 0 mm 3 mps 747 mmHg 54%
11:00 +16°C° 0 mm 2 mps 747 mmHg 48%
12:00 +17°C° 0 mm 2 mps 747 mmHg 41%
13:00 +16°C° 0 mm 2 mps 746 mmHg 45%
14:00 +16°C° 0 mm 2 mps 746 mmHg 48%
15:00 +16°C° 0 mm 2 mps 746 mmHg 51%
16:00 +15°C° 0.1 mm 2 mps 745 mmHg 54%
17:00 +15°C° 0.1 mm 2 mps 745 mmHg 57%
18:00 +15°C° 0.1 mm 1 mps 745 mmHg 60%
19:00 +14°C° 0.2 mm 1 mps 745 mmHg 66%
20:00 +12°C° 0.2 mm 1 mps 745 mmHg 72%
21:00 +11°C° 0.2 mm 1 mps 744 mmHg 78%
22:00 +10°C° 0 mm 2 mps 744 mmHg 79%
23:00 +9°C° 0 mm 2 mps 743 mmHg 81%

Day after tomorrow, 24 April, Saturday

Time Temperature Precipitation Wind Pressure Humidity
00:00 +9°C° 0 mm 2 mps 743 mmHg 83%
01:00 +8°C° 0 mm 2 mps 743 mmHg 84%
02:00 +8°C° 0 mm 2 mps 742 mmHg 86%
03:00 +8°C° 0 mm 2 mps 742 mmHg 87%
04:00 +8°C° 0 mm 2 mps 742 mmHg 87%
05:00 +8°C° 0 mm 3 mps 741 mmHg 87%
06:00 +8°C° 0 mm 3 mps 741 mmHg 87%
07:00 +10°C° 0.1 mm 3 mps 741 mmHg 78%
08:00 +11°C° 0.1 mm 4 mps 740 mmHg 70%
09:00 +13°C° 0.1 mm 4 mps 740 mmHg 61%
10:00 +14°C° 0.1 mm 5 mps 740 mmHg 57%
11:00 +15°C° 0.1 mm 6 mps 739 mmHg 52%
12:00 +15°C° 0.1 mm 7 mps 739 mmHg 48%
13:00 +14°C° 0.3 mm 7 mps 739 mmHg 55%
14:00 +12°C° 0.3 mm 7 mps 738 mmHg 62%
15:00 +11°C° 0.3 mm 8 mps 738 mmHg 69%
16:00 +9°C° 0.4 mm 7 mps 739 mmHg 73%
17:00 +8°C° 0.4 mm 6 mps 739 mmHg 76%
18:00 +5°C° 0.4 mm 6 mps 739 mmHg 79%
19:00 +6°C° 0 mm 5 mps 739 mmHg 79%
20:00 +6°C° 0 mm 5 mps 739 mmHg 78%
21:00 +5°C° 0 mm 4 mps 740 mmHg 77%
22:00 +5°C° 0.2 mm 4 mps 740 mmHg 80%
23:00 +4°C° 0.2 mm 4 mps 740 mmHg 83%

25 April, Sunday

Time Temperature Precipitation Wind Pressure Humidity
00:00 +4°C° 0.2 mm 4 mps 739 mmHg 87%
01:00 +3°C° 0 mm 3 mps 740 mmHg 88%
02:00 +3°C° 0 mm 3 mps 740 mmHg 90%
03:00 +2°C° 0 mm 3 mps 740 mmHg 92%
04:00 +3°C° 0 mm 3 mps 740 mmHg 91%
05:00 +3°C° 0 mm 3 mps 741 mmHg 90%
06:00 +3°C° 0 mm 3 mps 741 mmHg 89%
07:00 +4°C° 0.1 mm 4 mps 741 mmHg 80%
08:00 +5°C° 0.1 mm 5 mps 741 mmHg 72%
09:00 +7°C° 0.1 mm 5 mps 741 mmHg 63%
10:00 +7°C° 0.2 mm 6 mps 742 mmHg 59%
11:00 +8°C° 0.2 mm 6 mps 742 mmHg 55%
12:00 +9°C° 0.2 mm 7 mps 742 mmHg 51%
13:00 +9°C° 0.2 mm 7 mps 742 mmHg 49%
14:00 +8°C° 0.2 mm 7 mps 742 mmHg 47%
15:00 +8°C° 0.2 mm 7 mps 742 mmHg 46%
16:00 +8°C° 0 mm 7 mps 743 mmHg 47%
17:00 +8°C° 0 mm 6 mps 743 mmHg 49%
18:00 +7°C° 0 mm 5 mps 743 mmHg 51%
19:00 +6°C° 0 mm 5 mps 743 mmHg 56%
20:00 +5°C° 0 mm 4 mps 743 mmHg 61%
21:00 +4°C° 0 mm 3 mps 744 mmHg 66%
22:00 +4°C° 0 mm 3 mps 744 mmHg 68%
23:00 +4°C° 0 mm 2 mps 743 mmHg 70%

26 April, Monday

Time Temperature Precipitation Wind Pressure Humidity
00:00 +4°C° 0 mm 2 mps 743 mmHg 72%
01:00 +4°C° 0 mm 2 mps 743 mmHg 72%
02:00 +3°C° 0 mm 2 mps 743 mmHg 72%
03:00 +3°C° 0 mm 2 mps 743 mmHg 73%
04:00 +2°C° 0 mm 3 mps 743 mmHg 72%
05:00 +2°C° 0 mm 3 mps 743 mmHg 72%
06:00 +3°C° 0 mm 3 mps 743 mmHg 72%
07:00 +4°C° 0 mm 4 mps 742 mmHg 65%
08:00 +6°C° 0 mm 4 mps 742 mmHg 58%
09:00 +8°C° 0 mm 5 mps 742 mmHg 52%
10:00 +8°C° 0 mm 6 mps 742 mmHg 50%
11:00 +9°C° 0 mm 6 mps 741 mmHg 47%
12:00 +9°C° 0 mm 7 mps 741 mmHg 45%
13:00 +8°C° 0.3 mm 6 mps 741 mmHg 59%
14:00 +6°C° 0.3 mm 5 mps 741 mmHg 72%
15:00 +4°C° 0.3 mm 4 mps 741 mmHg 85%
16:00 +5°C° 0.1 mm 4 mps 741 mmHg 79%
17:00 +5°C° 0.1 mm 4 mps 741 mmHg 74%
18:00 +6°C° 0.1 mm 4 mps 741 mmHg 69%
19:00 +5°C° 0.1 mm 4 mps 741 mmHg 72%
20:00 +4°C° 0.1 mm 3 mps 741 mmHg 75%
21:00 +3°C° 0.1 mm 3 mps 742 mmHg 78%
22:00 +2°C° 0 mm 3 mps 742 mmHg 79%
23:00 +2°C° 0 mm 3 mps 742 mmHg 79%

27 April, Tuesday

Time Temperature Precipitation Wind Pressure Humidity
00:00 +1°C° 0 mm 3 mps 742 mmHg 80%
01:00 +1°C° 0 mm 3 mps 742 mmHg 81%
02:00 +1°C° 0 mm 3 mps 742 mmHg 83%
03:00 0°C° 0 mm 3 mps 742 mmHg 85%
04:00 0°C° 0 mm 3 mps 742 mmHg 85%
05:00 -1°C° 0 mm 4 mps 742 mmHg 85%
06:00 0°C° 0 mm 4 mps 742 mmHg 85%
07:00 +1°C° 0 mm 4 mps 743 mmHg 77%
08:00 +2°C° 0 mm 5 mps 743 mmHg 68%
09:00 +4°C° 0 mm 6 mps 743 mmHg 59%
10:00 +5°C° 0 mm 6 mps 743 mmHg 55%
11:00 +5°C° 0 mm 6 mps 743 mmHg 51%
12:00 +7°C° 0 mm 6 mps 743 mmHg 47%
13:00 +7°C° 0 mm 6 mps 743 mmHg 46%
14:00 +7°C° 0 mm 6 mps 743 mmHg 45%
15:00 +8°C° 0 mm 6 mps 743 mmHg 44%
16:00 +7°C° 0.2 mm 6 mps 743 mmHg 48%
17:00 +7°C° 0.2 mm 5 mps 743 mmHg 52%
18:00 +6°C° 0.2 mm 4 mps 743 mmHg 57%
19:00 +5°C° 0 mm 4 mps 743 mmHg 61%
20:00 +4°C° 0 mm 3 mps 744 mmHg 65%
21:00 +4°C° 0 mm 2 mps 744 mmHg 69%
22:00 +3°C° 0 mm 2 mps 744 mmHg 69%
23:00 +3°C° 0 mm 2 mps 744 mmHg 70%
Show more